Regional Weather Roundup
Issued by NWS Cleveland, OH

Home | Current Version | Previous Version | Text Only | Print | Product List | Glossary Off
Versions: 1 2 3 4 5 6 7 8 9 10 11 12 13 14 15 16 17 18 19 20 21 22 23 24 25 26 27 28 29 30 31 32 33 34 35 36 37 38 39 40 41 42 43 44 45 46 47 48 49 50

000
ASUS41 KCLE 290600
RWRCLE
OHIO REGIONAL WEATHER ROUNDUP
NATIONAL WEATHER SERVICE WILMINGTON, OH
200 AM EDT SUN MAY 29 2016

NOTE: "FAIR" INDICATES FEW OR NO CLOUDS BELOW 12,000 FEET WITH NO
SIGNIFICANT WEATHER AND/OR OBSTRUCTIONS TO VISIBILITY.

OHZ001>008-015>018-024>027-034-035-043-044-290700-
   NORTHWEST OHIO

CITY           SKY/WX    TMP DP  RH WIND       PRES   REMARKS
DEFIANCE       FAIR      70  63  78 S5        30.06R
FINDLAY        FAIR      67  60  78 S6        30.07R
TOLEDO EXPRESS FAIR      67  62  84 S3        30.06R
TOLEDO EXEC    FAIR      68  60  75 S5        30.07R
LIMA           FAIR      66  62  87 S6        30.08R
$$

OHZ009>014-019>023-028>033-038-089-290700-
   NORTHEAST OHIO

CITY           SKY/WX    TMP DP  RH WIND       PRES   REMARKS
CLE-HOPKINS    FAIR      69  62  78 S6        30.10S
CLE-LAKEFRONT  FAIR      73  63  70 S12       30.06S
CUY CO. ARPT   NOT AVBL
LORAIN-ELYRIA  FAIR      66  63  90 W5        30.09S
ASHTABULA      FAIR      67  66  97 CALM      30.10F
AKRON-CANTON   MOCLDY    69  62  78 S3        30.11S
WOOSTER        NOT AVBL
MANSFIELD      FAIR      66  65  96 S6        30.11S
YOUNGSTOWN     FAIR      64  62  93 E5        30.11S
$$

OHZ042-051>053-060>062-070>072-077>081-290700-
  SOUTHWEST OHIO

CITY           SKY/WX    TMP DP  RH WIND       PRES   REMARKS
CINC-COVINGTON FAIR      64  63  96 S6        30.10R
CINC-LUNKEN    MOCLDY    64  64 100 CALM      30.10R
HAMILTON       MOCLDY    65  63  93 CALM      30.10R
DAYTON         NOT AVBL
WRIGHT-PAT AFB NOT AVBL
DAYTON GENERAL FAIR      67  60  78 S7        30.10R
WILMINGTON     FAIR      67  62  84 CALM      30.11S
$$

OHZ036-037-039>041-045>050-054>059-063>069-073>076-082>088-290700-
  CENTRAL AND SOUTHEAST OHIO

CITY           SKY/WX    TMP DP  RH WIND       PRES   REMARKS
COLUMBUS       CLOUDY    67  66  97 CALM      30.09S
OSU AIRPORT    FAIR      67  65  93 CALM      30.10S
BOLTON FIELD   NOT AVBL
RICKENBACK AFB NOT AVBL
NEWARK         FAIR      66  64  93 CALM      30.10S FOG
MARION         FAIR      66  65  96 S6        30.10S FOG
LANCASTER      FAIR      66  64  93 CALM      30.10S FOG
ZANESVILLE     FAIR      69  65  86 CALM      30.11S
NEW PHILLY     FAIR      68  64  87 CALM      30.11S
$$




USA.gov is the U.S. government's official web portal to all federal, state and local government web resources and services.